weather.gov     
National Weather Service

Regional Weather Roundup
NWS Homepage
This page is being discontinued on March 12, 2014.
The same data is available at this site. Please update your bookmarks.
Thank you, and we apologize for the inconvenience.
Please send an email to SR-SRH.Webmaster@noaa.gov with any concerns.


Current Version
Previous Version:    01  02  03  04  05  06  07  08  09  10  11  12  13  14  15  16  17  18  19  20  21  22  23  24  25  26  
[Printable]
808
ASUS43 KDMX 290307
RWRIA

WEATHER ROUNDUP FOR IOWA
NATIONAL WEATHER SERVICE DES MOINES IA
900 PM CST FRI NOV 28 2014

NOTE: "FAIR" INDICATES FEW OR NO CLOUDS BELOW 12,000 FEET WITH NO
SIGNIFICANT WEATHER AND/OR OBSTRUCTIONS TO VISIBILITY.

* - THESE STATIONS ARE NOT NWS STATIONS...THUS NOT UNDER NWS
QUALITY CONTROL.  THEY ALSO DO NOT REPORT WEATHER SUCH
AS PRECIPITATION OR FOG.

IAZ001>003-012>014-020>022-031>034-043>046-290400-
   NORTHWEST IOWA

CITY           SKY/WX    TMP DP  RH WIND       PRES   REMARKS
CARROLL *      CLEAR     30  30 100 SE6       29.65F WCI  24
CHEROKEE *     CLEAR     27  27 100 CALM      29.64F
DENISON *      PTCLDY    39  32  75 CALM      29.62F
LE MARS *      CLEAR     30  28  93 CALM      29.62F
ORANGE CITY *  CLEAR     30  27  86 E7        29.61F WCI  23
SHELDON *      CLEAR     27  27 100 E10       29.62F WCI  17
SIOUX CITY     MOCLDY    34  28  79 E7        29.61F WCI  28
SPENCER          N/A     22  20  92 E7        29.66F WCI  13
STORM LAKE *   CLEAR     27  25  93 E9        29.64F FOG     WCI  17
$$

IAZ055>058-069>071-079>083-090>094-290400-
   SOUTHWEST IOWA

CITY           SKY/WX    TMP DP  RH WIND       PRES   REMARKS
ATLANTIC *     CLEAR     39  32  75 S7        29.65S WCI  34
AUDUBON *      CLEAR     36  28  75 S6        29.65F WCI  31
CLARINDA *     CLEAR     36  30  80 S3        29.69S
COUNCIL BLFS * CLEAR     41  32  70 SE9       29.61F
CRESTON *      CLEAR     39  32  75 S12       29.68F WCI  32
HARLAN  *      CLEAR     37  32  81 S5        29.67F WCI  34
LAMONI         CLOUDY    42  33  70 S13       29.70F
RED OAK *      CLEAR     39  32  75 S3        29.65F
SHENANDOAH *   CLOUDY    37  32  81 CALM      29.66F
$$

IAZ047>049-059>061-072>074-084-290400-
   CENTRAL IOWA

CITY           SKY/WX    TMP DP  RH WIND       PRES   REMARKS
AMES           PTCLDY    27  23  85 E6        29.71F WCI  20
ANKENY *       CLEAR     30  28  93 E5        29.71F WCI  25
CHARITON *     PTCLDY    37  32  81 S10       29.70F WCI  30
DES MOINES     PTCLDY    38  30  73 E6        29.70F WCI  33
GRINNELL*      CLEAR     27  25  93 E9        29.74F WCI  17
KNOXVILLE *    CLEAR     34  28  80 E6        29.71S WCI  29
MARSHALLTOWN     N/A     26  24  92 E12       29.74F WCI  16
PELLA *        CLEAR     32  30  93 SE7       29.74F WCI  26
PERRY *          N/A     31  30  95 E9        29.68F WCI  23
$$

IAZ004>006-015-016-023>025-035-036-290400-
   NORTH CENTRAL IOWA

CITY           SKY/WX    TMP DP  RH WIND       PRES   REMARKS
ALGONA *       CLEAR     27  25  93 SE17      29.67F WCI  14
CLARION *      CLEAR     28  27  93 E17       29.69F WCI  16
ESTHERVILLE    PTCLDY    18  17  96 E7        29.68F WCI   9
FORT DODGE *   PTCLDY    27  23  86 E8        29.68F WCI  18
MASON CITY     PTCLDY    24  21  88 SE10      29.74F WCI  14
FOREST CITY *    N/A     27  27 100 SE9       29.71F WCI  17
IOWA FALLS *     N/A     25  23  91 E10       29.74F FOG     WCI  15
$$

IAZ007>011-017>019-026>030-037>042-050>054-066-290400-
   NORTHEAST IOWA

CITY           SKY/WX    TMP DP  RH WIND       PRES   REMARKS
CEDAR RAPIDS   PTCLDY    28  27  96 E10       29.78F FOG     WCI  19
CHARLES CITY * PTCLDY    27  23  86 SE13      29.76F WCI  16
CLINTON *        N/A     27  25  93 E8        29.87F WCI  18
DECORAH *      CLEAR     25  21  86 SE8       29.78F WCI  16
DUBUQUE        MOCLDY    29  27  92 S9        29.82F WCI  20
MONTICELLO *   CLEAR     28  27  93 E7        29.81F WCI  21
OELWEIN *      CLEAR     27  25  93 SE13      29.78F WCI  16
WATERLOO       CLEAR     27  25  92 E9        29.77F WCI  18
$$

IAZ064-065-067-068-078-290400-
   EAST CENTRAL IOWA

CITY           SKY/WX    TMP DP  RH WIND       PRES   REMARKS
DAVENPORT      PTCLDY    32  28  85 SE10      29.84S WCI  24
IOWA CITY      PTCLDY    32  29  88 E5        29.81F WCI  27
MT. PLEASANT * CLEAR     32  30  93 SE8       29.78F WCI  25
MUSCATINE *    CLEAR     36  30  80 SE7       29.82F WCI  30
QUAD CITIES    PTCLDY    32  28  85 E7        29.84R WCI  26
$$

IAZ062-063-075>077-085>089-095>099-290400-
   SOUTHEAST IOWA

CITY           SKY/WX    TMP DP  RH WIND       PRES   REMARKS
BURLINGTON     CLEAR     36  32  85 S5        29.80F WCI  32
FAIRFIELD *    CLEAR     36  32  87 SE9       29.77S WCI  29
FORT MADISON * CLEAR     39  36  87 S9        29.80F WCI  33
KEOKUK *       CLEAR     37  34  87 SE7       29.79S WCI  32
OSKALOOSA *      N/A     31  29  91 E9        29.74F WCI  23
CENTERVILLE *  CLEAR     36  32  87 SE7       29.74F WCI  30
OTTUMWA        PTCLDY    37  31  78 SE7       29.74F WCI  32
WASHINGTON *   CLEAR     32  32 100 SE8       29.78S WCI  25
$$

ABBREVIATIONS USED IN REMARKS
   TC - TEMPERATURES IN CELSIUS
  WCI - WIND CHILL INDEX
   HX - HEAT INDEX
  VSB - VISIBILITY
$$





U.S. Dept. of Commerce
NOAA National Weather Service
1325 East West Highway
Silver Spring, MD 20910
E-mail: w-nws.webmaster@noaa.gov
Page last modified: May 16, 2007
NATIONAL WEATHER SERVICE: for Safety, for Work, for Fun - FOR LIFE